TimeEST,TemperatureF,Dew PointF,Humidity,Sea Level PressureIn,VisibilityMPH,Wind Direction,Wind SpeedMPH,Gust SpeedMPH,PrecipitationIn,Events,Conditions,WindDirDegrees,DateUTC
12:15 AM,42.1,34.5,75,30.23,10.0,West,8.1,-,N/A,,Clear,280,2012-12-05 05:15:00
12:35 AM,42.4,34.7,74,30.23,10.0,WNW,6.9,-,N/A,,Clear,290,2012-12-05 05:35:00
12:55 AM,42.3,34.9,75,30.24,10.0,NW,6.9,-,N/A,,Clear,310,2012-12-05 05:55:00
1:15 AM,41.2,34.5,77,30.24,10.0,WNW,4.6,-,N/A,,Clear,300,2012-12-05 06:15:00
1:35 AM,39.9,33.8,79,30.25,10.0,NW,4.6,-,N/A,,Clear,310,2012-12-05 06:35:00
1:55 AM,39.9,33.8,79,30.25,10.0,WNW,3.5,-,N/A,,Clear,300,2012-12-05 06:55:00
2:15 AM,37.6,32.7,83,30.26,10.0,West,5.8,-,N/A,,Clear,280,2012-12-05 07:15:00
2:35 AM,37.6,32.2,81,30.26,10.0,WNW,3.5,-,N/A,,Clear,290,2012-12-05 07:35:00
2:55 AM,37.6,32.4,81,30.27,10.0,West,4.6,-,N/A,,Clear,260,2012-12-05 07:55:00
3:15 AM,36.5,32.0,84,30.27,10.0,West,3.5,-,N/A,,Clear,270,2012-12-05 08:15:00
3:35 AM,36.3,31.8,84,30.27,10.0,West,6.9,-,N/A,,Clear,280,2012-12-05 08:35:00
3:55 AM,36.5,31.8,83,30.28,10.0,Calm,Calm,-,N/A,,Clear,0,2012-12-05 08:55:00
4:15 AM,34.9,31.3,87,30.28,10.0,West,3.5,-,N/A,,Clear,280,2012-12-05 09:15:00
4:55 AM,34.7,30.7,85,30.29,10.0,NW,5.8,-,N/A,,Clear,310,2012-12-05 09:55:00
5:15 AM,36.0,31.1,82,30.30,10.0,NW,5.8,-,N/A,,Clear,320,2012-12-05 10:15:00
5:35 AM,36.1,30.6,80,30.29,10.0,North,8.1,-,N/A,,Clear,350,2012-12-05 10:35:00
5:55 AM,36.1,30.2,79,30.30,10.0,North,4.6,-,N/A,,Clear,360,2012-12-05 10:55:00
6:15 AM,35.1,30.0,82,30.31,10.0,North,5.8,-,N/A,,Clear,350,2012-12-05 11:15:00
6:35 AM,34.9,30.0,82,30.32,10.0,North,3.5,-,N/A,,Clear,350,2012-12-05 11:35:00
6:55 AM,34.7,29.7,82,30.32,10.0,North,3.5,-,N/A,,Clear,10,2012-12-05 11:55:00
7:15 AM,34.5,29.7,82,30.33,10.0,North,5.8,-,N/A,,Clear,360,2012-12-05 12:15:00
7:35 AM,34.0,29.5,84,30.34,10.0,North,3.5,-,N/A,,Clear,10,2012-12-05 12:35:00
7:55 AM,33.8,29.3,84,30.35,10.0,North,3.5,-,N/A,,Clear,350,2012-12-05 12:55:00
9:55 AM,37.0,29.3,74,30.39,10.0,NE,9.2,-,N/A,,Clear,40,2012-12-05 14:55:00
10:15 AM,37.4,28.9,71,30.40,10.0,NE,10.4,-,N/A,,Clear,50,2012-12-05 15:15:00
10:35 AM,37.4,28.8,71,30.40,10.0,NE,8.1,-,N/A,,Clear,50,2012-12-05 15:35:00
10:55 AM,37.8,28.2,68,30.40,10.0,ENE,9.2,-,N/A,,Scattered Clouds,60,2012-12-05 15:55:00
11:15 AM,38.1,28.4,68,30.40,10.0,NE,6.9,-,N/A,,Scattered Clouds,50,2012-12-05 16:15:00
11:35 AM,39.0,29.1,68,30.39,10.0,NE,8.1,-,N/A,,Clear,50,2012-12-05 16:35:00
11:55 AM,39.2,28.6,66,30.38,10.0,NE,3.5,-,N/A,,Clear,50,2012-12-05 16:55:00
12:15 PM,39.9,28.6,64,30.37,10.0,Calm,Calm,-,N/A,,Clear,0,2012-12-05 17:15:00
12:55 PM,40.3,27.9,61,30.36,10.0,ENE,4.6,-,N/A,,Clear,60,2012-12-05 17:55:00
1:15 PM,40.8,27.3,59,30.36,10.0,Calm,Calm,-,N/A,,Clear,0,2012-12-05 18:15:00
1:55 PM,42.3,29.1,60,30.35,10.0,East,3.5,-,N/A,,Clear,100,2012-12-05 18:55:00
2:15 PM,42.6,29.5,60,30.35,10.0,NE,4.6,-,N/A,,Clear,50,2012-12-05 19:15:00
2:35 PM,42.8,29.1,58,30.34,10.0,NNE,5.8,-,N/A,,Clear,20,2012-12-05 19:35:00
2:55 PM,42.8,29.1,58,30.34,10.0,North,3.5,-,N/A,,Clear,10,2012-12-05 19:55:00
3:15 PM,42.8,29.1,58,30.34,10.0,ENE,5.8,-,N/A,,Clear,70,2012-12-05 20:15:00
3:35 PM,43.2,29.1,58,30.33,10.0,East,4.6,-,N/A,,Clear,90,2012-12-05 20:35:00
3:55 PM,42.6,27.5,55,30.33,10.0,East,4.6,-,N/A,,Clear,90,2012-12-05 20:55:00
4:15 PM,42.1,27.9,57,30.32,10.0,NE,4.6,-,N/A,,Clear,50,2012-12-05 21:15:00
4:35 PM,41.5,28.6,60,30.33,10.0,ENE,4.6,-,N/A,,Clear,70,2012-12-05 21:35:00
4:55 PM,40.5,29.3,64,30.33,10.0,NE,5.8,-,N/A,,Clear,40,2012-12-05 21:55:00
5:15 PM,39.2,29.3,68,30.32,10.0,ENE,4.6,-,N/A,,Clear,60,2012-12-05 22:15:00
5:35 PM,37.8,29.1,71,30.32,10.0,ENE,5.8,-,N/A,,Clear,60,2012-12-05 22:35:00
5:55 PM,36.9,28.4,71,30.32,10.0,ENE,4.6,-,N/A,,Clear,60,2012-12-05 22:55:00
6:15 PM,36.3,27.9,71,30.33,10.0,NE,5.8,-,N/A,,Clear,50,2012-12-05 23:15:00
6:35 PM,35.4,27.9,74,30.32,10.0,ENE,5.8,-,N/A,,Clear,60,2012-12-05 23:35:00
6:55 PM,34.9,27.9,76,30.33,10.0,ENE,3.5,-,N/A,,Clear,70,2012-12-05 23:55:00
7:15 PM,34.5,27.7,76,30.32,10.0,East,3.5,-,N/A,,Clear,80,2012-12-06 00:15:00
7:35 PM,34.2,27.5,77,30.32,10.0,East,4.6,-,N/A,,Clear,80,2012-12-06 00:35:00
7:55 PM,34.3,27.0,74,30.32,10.0,East,6.9,-,N/A,,Clear,80,2012-12-06 00:55:00
8:15 PM,33.8,26.6,75,30.32,10.0,East,6.9,-,N/A,,Clear,90,2012-12-06 01:15:00
8:35 PM,33.4,26.6,76,30.32,10.0,East,5.8,-,N/A,,Clear,80,2012-12-06 01:35:00
8:55 PM,32.9,26.6,78,30.32,10.0,ENE,5.8,-,N/A,,Clear,70,2012-12-06 01:55:00
9:15 PM,32.9,26.4,77,30.31,10.0,East,6.9,-,N/A,,Clear,80,2012-12-06 02:15:00
9:35 PM,32.5,26.4,78,30.31,10.0,East,8.1,-,N/A,,Clear,80,2012-12-06 02:35:00
9:55 PM,32.4,26.1,78,30.30,10.0,East,6.9,-,N/A,,Clear,100,2012-12-06 02:55:00